Weather History for Dansville, NY

Change the Weather History Date:

Sunday, December 23, 2012

  Actual Average Record
Temperature  
Mean Temperature 34 °F -  
Max Temperature 39 °F 36 °F 67 °F (1949)
Min Temperature 30 °F 20 °F -5 °F (1959)
Degree Days  
Heating Degree Days 30    
Moisture  
Dew Point 23 °F    
Average Humidity 67    
Maximum Humidity 86    
Minimum Humidity 46    
Precipitation  
Precipitation 0.00 in - - ()
Sea Level Pressure  
Sea Level Pressure 29.92 in    
Wind  
Wind Speed 3 mph (WNW)    
Max Wind Speed 14 mph    
Max Gust Speed 18 mph    
Visibility 10 miles    
Events      
Averages and records for this station are not official NWS values.
T = Trace of Precipitation, MM = Missing Value Source: NWS Daily Summary

Daily Weather History Graph

Daily Weather History Graph

Search for Another Location

Airport:

Trip Planner

Search our weather history database for the weather conditions in past years. The results will help you decide how hot, cold, wet, or windy it might be!

Date:

Astronomy

Dec. 23, 2012 Rise Set
Actual Time 7:38 AM EST 4:41 PM EST
Civil Twilight 7:06 AM EST 5:14 PM EST
Nautical Twilight 6:30 AM EST 5:49 PM EST
Astronomical Twilight 5:56 AM EST 6:24 PM EST
Moon 1:33 PM EST (12/23) 3:16 AM EST (12/23)
Length of Visible Light 10h 07m
Length of Day
9h 03m
Waxing Gibbous, 81% of the Moon is Illuminated
Dec 23
Waxing Gibbous
Dec 28
Full
Jan 4
Last Quarter
Jan 11
New
Jan 18
First Quarter

Hourly Weather History & Observations

Time (EST) Temp. Windchill Dew Point Humidity Pressure Visibility Wind Dir Wind Speed Gust Speed Precip Events Conditions
12:54 AM 32.0 °F - 24.1 °F 73% 29.95 in 10.0 mi Calm Calm - N/A   Mostly Cloudy
1:54 AM 30.9 °F - 23.0 °F 72% 29.95 in 10.0 mi Calm Calm - N/A   Mostly Cloudy
2:54 AM 32.0 °F - 23.0 °F 69% 29.95 in 10.0 mi Calm Calm - N/A   Mostly Cloudy
3:52 AM 32.0 °F 27.5 °F 24.8 °F 75% 29.90 in 10.0 mi NNW 4.6 mph - N/A   Overcast
3:54 AM 32.0 °F 26.4 °F 25.0 °F 75% 29.95 in 10.0 mi NNW 5.8 mph - N/A   Overcast
4:22 AM 30.2 °F 26.7 °F 24.8 °F 80% 29.89 in 10.0 mi North 3.5 mph - N/A   Overcast
4:54 AM 30.9 °F - 26.1 °F 82% 29.93 in 10.0 mi Calm Calm - N/A   Overcast
5:24 AM 30.2 °F - 26.6 °F 86% 29.87 in 10.0 mi Calm Calm - N/A   Overcast
5:54 AM 30.9 °F 26.2 °F 26.1 °F 82% 29.92 in 10.0 mi Variable 4.6 mph - N/A   Overcast
6:54 AM 33.1 °F 28.7 °F 26.1 °F 75% 29.91 in 10.0 mi South 4.6 mph - N/A   Overcast
7:23 AM 33.8 °F 30.8 °F 26.6 °F 75% 29.86 in 10.0 mi SSW 3.5 mph - N/A   Overcast
7:54 AM 33.1 °F 26.9 °F 25.0 °F 72% 29.91 in 10.0 mi SSW 6.9 mph - N/A   Overcast
8:54 AM 32.0 °F 28.7 °F 21.9 °F 66% 29.92 in 10.0 mi Variable 3.5 mph - N/A   Mostly Cloudy
9:54 AM 32.0 °F 28.7 °F 21.0 °F 64% 29.92 in 10.0 mi SSW 3.5 mph - N/A   Overcast
10:54 AM 35.1 °F 29.3 °F 21.0 °F 57% 29.91 in 10.0 mi Variable 6.9 mph - N/A   Overcast
12:54 PM 37.0 °F 31.0 °F 21.0 °F 52% 29.85 in 10.0 mi South 8.1 mph - N/A   Clear
1:54 PM 39.0 °F - 19.9 °F 46% 29.83 in 10.0 mi Calm Calm - N/A   Clear
2:54 PM 37.0 °F 30.4 °F 19.9 °F 50% 29.86 in 10.0 mi WNW 9.2 mph 18.4 mph N/A   Clear
3:54 PM 36.0 °F 32.1 °F 19.9 °F 52% 29.88 in 10.0 mi West 4.6 mph - N/A   Overcast
4:54 PM 36.0 °F 28.5 °F 24.1 °F 62% 29.89 in 10.0 mi NNW 10.4 mph - N/A   Overcast
5:54 PM 35.1 °F 28.6 °F 25.0 °F 67% 29.92 in 10.0 mi NW 8.1 mph - N/A   Overcast
6:54 PM 35.1 °F 32.2 °F 23.0 °F 61% 29.94 in 10.0 mi Variable 3.5 mph - N/A   Overcast
7:54 PM 35.1 °F - 23.0 °F 61% 29.96 in 10.0 mi Calm Calm - N/A   Overcast
8:54 PM 35.1 °F 32.2 °F 24.1 °F 64% 29.96 in 10.0 mi West 3.5 mph - N/A   Overcast
9:54 PM 34.0 °F 27.2 °F 23.0 °F 64% 29.99 in 10.0 mi NW 8.1 mph - N/A   Overcast
10:54 PM 33.1 °F 26.1 °F 21.0 °F 61% 30.02 in 10.0 mi WNW 8.1 mph - N/A   Overcast
11:54 PM 30.9 °F 20.7 °F 23.0 °F 72% 30.04 in 10.0 mi NNW 13.8 mph - N/A   Overcast